EIN494 EIDW-LPFR

Flight info

Callsign EIN494
Flight time 2h 39m
Altitude 36000
Route PELIG2J PELIG DCT ABAGU DCT TUVEN/M079F360 DCT LASNO T9 BEGAS/N0454F360 DCT PINEK/N0448F370 DCT ALAGU ALAGU6K
Aircraft A320/M-SDE3FGHIRWY/LB1

Departure

Time 2026-05-01 09:32
Airport Dublin Airport (EIDW)

Arrival

Time 2026-05-01 12:11
Airport Faro - Gago Coutinho International Airport (LPFR)
Time Latitude Longitude Altitude Speed Heading
2026-05-01 08:57 53.42253 -6.24434 211 ft 0 kts 332°
2026-05-01 09:15 53.42241 -6.24423 214 ft 4 kts 332°
2026-05-01 09:15 53.42224 -6.24408 214 ft 0 kts 332°
2026-05-01 09:16 53.42216 -6.24401 215 ft 2 kts 332°
2026-05-01 09:17 53.42188 -6.24372 218 ft 2 kts 318°
2026-05-01 09:17 53.42175 -6.24352 211 ft 2 kts 318°
2026-05-01 09:17 53.42158 -6.24304 211 ft 2 kts 273°
2026-05-01 09:18 53.42158 -6.24300 211 ft 0 kts 273°
2026-05-01 09:21 53.42164 -6.24446 214 ft 11 kts 275°
2026-05-01 09:22 53.42177 -6.24668 216 ft 8 kts 277°
2026-05-01 09:22 53.42235 -6.24769 214 ft 5 kts 337°
2026-05-01 09:23 53.42264 -6.24790 216 ft 4 kts 337°
2026-05-01 09:23 53.42302 -6.24815 214 ft 2 kts 337°
2026-05-01 09:24 53.42385 -6.24877 215 ft 15 kts 335°
2026-05-01 09:24 53.42503 -6.24966 214 ft 20 kts 335°
2026-05-01 09:24 53.42744 -6.25184 211 ft 19 kts 315°
2026-05-01 09:25 53.42966 -6.25367 211 ft 17 kts 336°
2026-05-01 09:25 53.43154 -6.25502 213 ft 13 kts 335°
2026-05-01 09:26 53.43231 -6.25560 215 ft 11 kts 336°
2026-05-01 09:26 53.43359 -6.25653 215 ft 9 kts 338°
2026-05-01 09:26 53.43404 -6.25624 211 ft 7 kts 56°
2026-05-01 09:27 53.43400 -6.25435 213 ft 12 kts 95°
2026-05-01 09:27 53.43391 -6.25277 214 ft 16 kts 95°
2026-05-01 09:27 53.43381 -6.25075 211 ft 19 kts 95°
2026-05-01 09:28 53.43367 -6.24837 213 ft 21 kts 96°
2026-05-01 09:28 53.43352 -6.24581 211 ft 23 kts 96°
2026-05-01 09:28 53.43337 -6.24310 211 ft 24 kts 93°
2026-05-01 09:28 53.43322 -6.24032 211 ft 23 kts 95°
2026-05-01 09:29 53.43408 -6.23851 210 ft 9 kts
2026-05-01 09:29 53.43473 -6.23858 208 ft 9 kts 325°
2026-05-01 09:30 53.43490 -6.23942 216 ft 0 kts 271°
2026-05-01 09:31 53.43491 -6.23982 213 ft 15 kts 273°
2026-05-01 09:31 53.43526 -6.24610 214 ft 89 kts 276°
2026-05-01 09:31 53.43717 -6.27902 449 ft 169 kts 278°
2026-05-01 09:32 53.43870 -6.29859 1095 ft 172 kts 276°
2026-05-01 09:32 53.45382 -6.33407 1955 ft 214 kts 314°
2026-05-01 09:32 53.46496 -6.35175 2488 ft 224 kts 314°
2026-05-01 09:33 53.47563 -6.37184 2912 ft 241 kts 304°
2026-05-01 09:33 53.47677 -6.37434 2947 ft 243 kts 304°
2026-05-01 09:33 53.48195 -6.38625 3145 ft 255 kts 302°
2026-05-01 09:34 53.48452 -6.39241 3262 ft 260 kts 302°
2026-05-01 09:34 53.49209 -6.41098 3764 ft 267 kts 301°
2026-05-01 09:34 53.51076 -6.46570 5376 ft 272 kts 276°
2026-05-01 09:35 53.51029 -6.49701 5857 ft 268 kts 249°
2026-05-01 09:35 53.50251 -6.52677 5990 ft 263 kts 238°
2026-05-01 09:35 53.49362 -6.55400 6512 ft 266 kts 236°
2026-05-01 09:36 53.48441 -6.58093 7448 ft 266 kts 235°
2026-05-01 09:36 53.47510 -6.60801 8304 ft 269 kts 235°
2026-05-01 09:36 53.46568 -6.63554 8952 ft 275 kts 234°
2026-05-01 09:36 53.45573 -6.66284 9841 ft 274 kts 233°
2026-05-01 09:37 53.44542 -6.69006 10506 ft 283 kts 232°
2026-05-01 09:37 53.42224 -6.74995 10960 ft 328 kts 232°
2026-05-01 09:37 53.40966 -6.78271 11453 ft 338 kts 233°
2026-05-01 09:38 53.38412 -6.85014 12835 ft 346 kts 233°
2026-05-01 09:38 53.37131 -6.88405 13517 ft 350 kts 233°
2026-05-01 09:38 53.35822 -6.91863 14161 ft 353 kts 233°
2026-05-01 09:39 53.33151 -6.98916 15432 ft 359 kts 233°
2026-05-01 09:39 53.31828 -7.02402 16027 ft 361 kts 232°
2026-05-01 09:39 53.30477 -7.05954 16667 ft 363 kts 232°
2026-05-01 09:40 53.29111 -7.09533 17284 ft 366 kts 232°
2026-05-01 09:40 53.26343 -7.16757 18501 ft 371 kts 232°
2026-05-01 09:40 53.24944 -7.20392 19047 ft 374 kts 231°
2026-05-01 09:41 53.23707 -7.23598 19497 ft 377 kts 231°
2026-05-01 09:41 53.21110 -7.29580 20390 ft 374 kts 221°
2026-05-01 09:41 53.19141 -7.32401 20902 ft 371 kts 210°
2026-05-01 09:42 53.16903 -7.34503 21406 ft 369 kts 200°
2026-05-01 09:42 53.14467 -7.35858 21883 ft 369 kts 193°
2026-05-01 09:42 53.09475 -7.38107 22826 ft 374 kts 193°
2026-05-01 09:43 53.04414 -7.40405 23717 ft 380 kts 193°
2026-05-01 09:43 53.01848 -7.41570 24080 ft 382 kts 193°
2026-05-01 09:43 52.99307 -7.42723 24440 ft 384 kts 193°
2026-05-01 09:44 52.94120 -7.45082 25160 ft 388 kts 193°
2026-05-01 09:44 52.91509 -7.46265 25515 ft 389 kts 193°
2026-05-01 09:44 52.88887 -7.47447 25866 ft 391 kts 193°
2026-05-01 09:45 52.86251 -7.48634 26207 ft 393 kts 193°
2026-05-01 09:45 52.80954 -7.51015 26875 ft 396 kts 193°
2026-05-01 09:45 52.78288 -7.52213 27188 ft 398 kts 193°
2026-05-01 09:46 52.75643 -7.53397 27500 ft 399 kts 193°
2026-05-01 09:46 52.72957 -7.54600 27813 ft 400 kts 193°
2026-05-01 09:46 52.70261 -7.55807 28176 ft 401 kts 192°
2026-05-01 09:46 52.67560 -7.57015 28487 ft 402 kts 192°
2026-05-01 09:47 52.64856 -7.58219 28785 ft 403 kts 192°
2026-05-01 09:47 52.62143 -7.59425 29055 ft 404 kts 192°
2026-05-01 09:47 52.58963 -7.60840 29349 ft 406 kts 192°
2026-05-01 09:48 52.56225 -7.62056 29593 ft 408 kts 192°
2026-05-01 09:48 52.53483 -7.63274 29907 ft 407 kts 192°
2026-05-01 09:48 52.50755 -7.64483 30253 ft 406 kts 192°
2026-05-01 09:48 52.48026 -7.65673 30545 ft 405 kts 192°
2026-05-01 09:49 52.46516 -7.66313 30697 ft 404 kts 191°
2026-05-01 09:49 52.43791 -7.67442 30988 ft 403 kts 191°
2026-05-01 09:49 52.41071 -7.68544 31280 ft 402 kts 191°
2026-05-01 09:49 52.38394 -7.69624 31567 ft 401 kts 191°
2026-05-01 09:50 52.35685 -7.70723 31847 ft 400 kts 191°
2026-05-01 09:50 52.32987 -7.71826 32131 ft 399 kts 191°
2026-05-01 09:50 52.30292 -7.72936 32421 ft 399 kts 191°
2026-05-01 09:50 52.27604 -7.74048 32713 ft 398 kts 191°
2026-05-01 09:51 52.24923 -7.75158 32984 ft 397 kts 191°
2026-05-01 09:51 52.22246 -7.76264 33260 ft 397 kts 191°
2026-05-01 09:51 52.19570 -7.77364 33548 ft 396 kts 191°
2026-05-01 09:51 52.16898 -7.78456 33844 ft 395 kts 191°
2026-05-01 09:52 52.14226 -7.79546 34138 ft 394 kts 191°
2026-05-01 09:52 52.11562 -7.80631 34377 ft 394 kts 191°
2026-05-01 09:52 52.08897 -7.81714 34588 ft 395 kts 191°
2026-05-01 09:52 52.06228 -7.82796 34777 ft 395 kts 191°
2026-05-01 09:53 52.03558 -7.83880 34964 ft 396 kts 191°
2026-05-01 09:53 52.00907 -7.84957 35153 ft 397 kts 191°
2026-05-01 09:53 51.98228 -7.86043 35371 ft 397 kts 191°
2026-05-01 09:53 51.95552 -7.87128 35561 ft 397 kts 191°
2026-05-01 09:54 51.92870 -7.88219 35709 ft 398 kts 191°
2026-05-01 09:54 51.90146 -7.89323 35874 ft 399 kts 191°
2026-05-01 09:54 51.87439 -7.90418 36042 ft 399 kts 191°
2026-05-01 09:54 51.84786 -7.91492 36118 ft 401 kts 191°
2026-05-01 09:55 51.80329 -7.93287 36141 ft 403 kts 191°
2026-05-01 09:55 51.75801 -7.95103 36141 ft 403 kts 191°
2026-05-01 09:56 51.69460 -7.97633 36137 ft 404 kts 191°
2026-05-01 09:56 51.64005 -7.99812 36135 ft 404 kts 191°
2026-05-01 09:57 51.60498 -8.01212 36135 ft 404 kts 191°
2026-05-01 09:57 51.55010 -8.03401 36138 ft 404 kts 191°
2026-05-01 09:58 51.49561 -8.05556 36146 ft 404 kts 191°
2026-05-01 09:58 51.44102 -8.07720 36141 ft 404 kts 191°
2026-05-01 09:59 51.38639 -8.09879 36144 ft 404 kts 191°
2026-05-01 09:59 51.33173 -8.12034 36147 ft 404 kts 191°
2026-05-01 10:00 51.27707 -8.14185 36161 ft 405 kts 192°
2026-05-01 10:00 51.22232 -8.16337 36151 ft 406 kts 192°
2026-05-01 10:01 51.16740 -8.18487 36147 ft 406 kts 192°
2026-05-01 10:01 51.11242 -8.20629 36149 ft 407 kts 192°
2026-05-01 10:02 51.05744 -8.22776 36152 ft 407 kts 192°
2026-05-01 10:02 51.00243 -8.24918 36151 ft 407 kts 192°
2026-05-01 10:03 50.94716 -8.26862 36155 ft 407 kts 190°
2026-05-01 10:03 50.89162 -8.28616 36154 ft 407 kts 190°
2026-05-01 10:04 50.83609 -8.30370 36156 ft 407 kts 190°
2026-05-01 10:04 50.78056 -8.32162 36160 ft 407 kts 190°
2026-05-01 10:05 50.72515 -8.33959 36153 ft 407 kts 190°
2026-05-01 10:05 50.66966 -8.35764 36156 ft 407 kts 190°
2026-05-01 10:06 50.61452 -8.37558 36159 ft 407 kts 190°
2026-05-01 10:06 50.55907 -8.39354 36182 ft 407 kts 191°
2026-05-01 10:07 50.50343 -8.41147 36166 ft 408 kts 191°
2026-05-01 10:07 50.44783 -8.42912 36155 ft 408 kts 191°
2026-05-01 10:08 50.36416 -8.45603 36155 ft 409 kts 191°
2026-05-01 10:09 50.30837 -8.47397 36145 ft 409 kts 191°
2026-05-01 10:09 50.25253 -8.49169 36144 ft 410 kts 191°
2026-05-01 10:10 50.19667 -8.50930 36150 ft 410 kts 191°
2026-05-01 10:10 50.11274 -8.53584 36154 ft 410 kts 191°
2026-05-01 10:11 50.05705 -8.55348 36150 ft 410 kts 191°
2026-05-01 10:11 50.00111 -8.57109 36155 ft 410 kts 191°
2026-05-01 10:12 49.94477 -8.58888 36154 ft 410 kts 191°
2026-05-01 10:13 49.86114 -8.61518 36141 ft 410 kts 191°
2026-05-01 10:13 49.80506 -8.63259 36172 ft 411 kts 191°
2026-05-01 10:14 49.72073 -8.65877 36150 ft 413 kts 191°
2026-05-01 10:14 49.66438 -8.67636 36144 ft 413 kts 191°
2026-05-01 10:15 49.60801 -8.69388 36145 ft 413 kts 191°
2026-05-01 10:15 49.55160 -8.71134 36150 ft 413 kts 191°
2026-05-01 10:16 49.49520 -8.72873 36154 ft 414 kts 191°
2026-05-01 10:17 49.41047 -8.75480 36148 ft 414 kts 191°
2026-05-01 10:17 49.32583 -8.78070 36152 ft 413 kts 191°
2026-05-01 10:18 49.24118 -8.80651 36162 ft 413 kts 191°
2026-05-01 10:19 49.18479 -8.82364 36154 ft 413 kts 191°
2026-05-01 10:19 49.12846 -8.84073 36166 ft 413 kts 191°
2026-05-01 10:20 49.04396 -8.86635 36170 ft 414 kts 191°
2026-05-01 10:20 48.98745 -8.88340 36158 ft 415 kts 192°
2026-05-01 10:21 48.90275 -8.90897 36151 ft 415 kts 191°
2026-05-01 10:22 48.81773 -8.93443 36159 ft 415 kts 191°
2026-05-01 10:23 48.73264 -8.95990 36170 ft 415 kts 191°
2026-05-01 10:23 48.64761 -8.98529 36170 ft 415 kts 191°
2026-05-01 10:24 48.53325 -8.99982 36172 ft 415 kts 181°
2026-05-01 10:25 48.41760 -8.99982 36173 ft 415 kts 181°
2026-05-01 10:26 48.35979 -8.99990 36169 ft 415 kts 181°
2026-05-01 10:27 48.24410 -8.99996 36165 ft 415 kts 181°
2026-05-01 10:28 48.15773 -8.99993 36176 ft 415 kts 181°
2026-05-01 10:28 48.07102 -8.99997 36163 ft 415 kts 181°
2026-05-01 10:29 47.98428 -8.99993 36173 ft 415 kts 181°
2026-05-01 10:30 47.86859 -8.99982 36166 ft 416 kts 181°
2026-05-01 10:31 47.75300 -8.99991 36182 ft 415 kts 181°
2026-05-01 10:32 47.66634 -8.99979 36183 ft 415 kts 181°
2026-05-01 10:33 47.55073 -8.99999 36180 ft 415 kts 181°
2026-05-01 10:34 47.46406 -8.99995 36183 ft 415 kts 181°
2026-05-01 10:34 47.40632 -8.99997 36181 ft 415 kts 182°
2026-05-01 10:35 47.32002 -9.00000 36178 ft 415 kts 181°
2026-05-01 10:35 47.26219 -8.99988 36186 ft 415 kts 181°
2026-05-01 10:36 47.17557 -8.99988 36178 ft 415 kts 182°
2026-05-01 10:37 47.11782 -8.99994 36182 ft 415 kts 182°
2026-05-01 10:37 47.03122 -8.99991 36179 ft 415 kts 182°
2026-05-01 10:38 46.97350 -8.99993 36181 ft 415 kts 182°
2026-05-01 10:38 46.91575 -8.99994 36183 ft 415 kts 182°
2026-05-01 10:39 46.86771 -8.99998 36189 ft 415 kts 182°
2026-05-01 10:39 46.80992 -9.00001 36194 ft 415 kts 182°
2026-05-01 10:40 46.75211 -8.99995 36189 ft 415 kts 182°
2026-05-01 10:40 46.69520 -8.99988 36188 ft 415 kts 182°
2026-05-01 10:41 46.63736 -8.99982 36189 ft 415 kts 182°
2026-05-01 10:42 46.55106 -8.99996 36181 ft 415 kts 183°
2026-05-01 10:42 46.49324 -9.00000 36189 ft 415 kts 183°
2026-05-01 10:43 46.43547 -8.99996 36189 ft 415 kts 182°
2026-05-01 10:43 46.37774 -8.99991 36191 ft 415 kts 183°
2026-05-01 10:44 46.32002 -8.99992 36193 ft 415 kts 182°
2026-05-01 10:44 46.26229 -8.99987 36193 ft 415 kts 182°
2026-05-01 10:45 46.20459 -8.99985 36185 ft 415 kts 183°
2026-05-01 10:45 46.14687 -8.99989 36191 ft 415 kts 183°
2026-05-01 10:46 46.08920 -8.99990 36189 ft 414 kts 183°
2026-05-01 10:46 46.03153 -8.99994 36190 ft 414 kts 183°
2026-05-01 10:47 45.97390 -8.99988 36180 ft 414 kts 183°
2026-05-01 10:47 45.91630 -8.99985 36187 ft 414 kts 183°
2026-05-01 10:48 45.85876 -8.99991 36193 ft 413 kts 183°
2026-05-01 10:48 45.80122 -8.99992 36172 ft 413 kts 183°
2026-05-01 10:49 45.74373 -8.99994 36182 ft 413 kts 183°
2026-05-01 10:49 45.68630 -8.99986 36190 ft 412 kts 183°
2026-05-01 10:50 45.62930 -8.99991 36193 ft 412 kts 183°
2026-05-01 10:50 45.57196 -9.00000 36208 ft 412 kts 183°
2026-05-01 10:51 45.51449 -9.00004 36201 ft 412 kts 183°
2026-05-01 10:51 45.45714 -8.99999 36198 ft 412 kts 183°
2026-05-01 10:52 45.40013 -8.99985 36180 ft 412 kts 183°
2026-05-01 10:52 45.34280 -8.99977 36186 ft 412 kts 183°
2026-05-01 10:53 45.28548 -8.99989 36187 ft 411 kts 183°
2026-05-01 10:53 45.22824 -8.99983 36188 ft 411 kts 183°
2026-05-01 10:54 45.17098 -8.99989 36178 ft 411 kts 183°
2026-05-01 10:54 45.11374 -8.99990 36186 ft 411 kts 183°
2026-05-01 10:55 45.05654 -8.99992 36186 ft 411 kts 183°
2026-05-01 10:55 44.99929 -8.99909 36177 ft 412 kts 181°
2026-05-01 10:56 44.94198 -8.99376 36184 ft 413 kts 178°
2026-05-01 10:56 44.88508 -8.98540 36187 ft 414 kts 178°
2026-05-01 10:57 44.82780 -8.97684 36171 ft 413 kts 178°
2026-05-01 10:57 44.77056 -8.96897 36182 ft 413 kts 178°
2026-05-01 10:58 44.71328 -8.96141 36186 ft 413 kts 178°
2026-05-01 10:58 44.65603 -8.95389 36190 ft 413 kts 178°
2026-05-01 10:59 44.59878 -8.94636 36182 ft 413 kts 178°
2026-05-01 10:59 44.54150 -8.93880 36187 ft 413 kts 178°
2026-05-01 11:00 44.48426 -8.93118 36193 ft 413 kts 178°
2026-05-01 11:00 44.42736 -8.92370 36196 ft 413 kts 178°
2026-05-01 11:01 44.37012 -8.91612 36198 ft 413 kts 178°
2026-05-01 11:01 44.31283 -8.90858 36197 ft 413 kts 178°
2026-05-01 11:02 44.25554 -8.90107 36178 ft 413 kts 178°
2026-05-01 11:02 44.19830 -8.89359 36184 ft 413 kts 178°
2026-05-01 11:03 44.14097 -8.88612 36190 ft 413 kts 178°
2026-05-01 11:03 44.08367 -8.87860 36193 ft 413 kts 178°
2026-05-01 11:04 44.02636 -8.87112 36188 ft 413 kts 178°
2026-05-01 11:04 43.96944 -8.86375 36190 ft 413 kts 178°
2026-05-01 11:05 43.91209 -8.85630 36187 ft 413 kts 178°
2026-05-01 11:05 43.85478 -8.84883 36170 ft 414 kts 178°
2026-05-01 11:06 43.79746 -8.84146 36174 ft 414 kts 178°
2026-05-01 11:06 43.74007 -8.83411 36178 ft 414 kts 178°
2026-05-01 11:07 43.65550 -8.81122 36163 ft 428 kts 151°
2026-05-01 11:07 43.63388 -8.78308 36156 ft 442 kts 130°
2026-05-01 11:07 43.61985 -8.74417 36152 ft 453 kts 115°
2026-05-01 11:08 43.60744 -8.70515 36118 ft 445 kts 129°
2026-05-01 11:08 43.58671 -8.67391 36157 ft 431 kts 150°
2026-05-01 11:08 43.53238 -8.65267 36151 ft 407 kts 186°
2026-05-01 11:09 43.50424 -8.65643 36150 ft 406 kts 191°
2026-05-01 11:09 43.44821 -8.66765 36135 ft 408 kts 189°
2026-05-01 11:10 43.36234 -8.66844 36140 ft 415 kts 180°
2026-05-01 11:10 43.30472 -8.66308 36142 ft 415 kts 180°
2026-05-01 11:11 43.24700 -8.65923 36128 ft 416 kts 181°
2026-05-01 11:11 43.18913 -8.65679 36135 ft 416 kts 182°
2026-05-01 11:12 43.13123 -8.65460 36140 ft 416 kts 182°
2026-05-01 11:12 43.07328 -8.65209 36145 ft 417 kts 181°
2026-05-01 11:13 43.01523 -8.64930 36143 ft 417 kts 181°
2026-05-01 11:13 42.95712 -8.64662 36146 ft 418 kts 181°
2026-05-01 11:14 42.89902 -8.64401 36143 ft 418 kts 182°
2026-05-01 11:14 42.84087 -8.64144 36149 ft 418 kts 182°
2026-05-01 11:15 42.78268 -8.63888 36148 ft 418 kts 182°
2026-05-01 11:15 42.72448 -8.63633 36152 ft 419 kts 182°
2026-05-01 11:16 42.66624 -8.63371 36136 ft 419 kts 182°
2026-05-01 11:16 42.60793 -8.63105 36140 ft 419 kts 182°
2026-05-01 11:17 42.54959 -8.62848 36149 ft 420 kts 182°
2026-05-01 11:17 42.49118 -8.62585 36154 ft 420 kts 182°
2026-05-01 11:18 42.43277 -8.62329 36158 ft 420 kts 182°
2026-05-01 11:18 42.37438 -8.62079 36165 ft 420 kts 182°
2026-05-01 11:19 42.31594 -8.61819 36167 ft 420 kts 182°
2026-05-01 11:19 42.25747 -8.61548 36154 ft 420 kts 182°
2026-05-01 11:20 42.19898 -8.61291 36159 ft 421 kts 182°
2026-05-01 11:20 42.14045 -8.61045 36152 ft 421 kts 182°
2026-05-01 11:21 42.08188 -8.60795 36142 ft 421 kts 182°
2026-05-01 11:21 42.02324 -8.60534 36145 ft 422 kts 182°
2026-05-01 11:22 41.96457 -8.60271 36150 ft 422 kts 182°
2026-05-01 11:22 41.90588 -8.60024 36154 ft 422 kts 182°
2026-05-01 11:23 41.84750 -8.59716 36150 ft 425 kts 177°
2026-05-01 11:23 41.78872 -8.58182 36157 ft 428 kts 173°
2026-05-01 11:24 41.74016 -8.56893 36159 ft 428 kts 173°
2026-05-01 11:25 41.65246 -8.54512 36143 ft 429 kts 173°
2026-05-01 11:25 41.55504 -8.51818 36156 ft 431 kts 173°
2026-05-01 11:26 41.47653 -8.49660 36155 ft 431 kts 173°
2026-05-01 11:27 41.41774 -8.48051 36150 ft 432 kts 174°
2026-05-01 11:27 41.35886 -8.46440 36154 ft 432 kts 174°
2026-05-01 11:28 41.29992 -8.44833 36160 ft 432 kts 174°
2026-05-01 11:28 41.24096 -8.43233 36154 ft 433 kts 174°
2026-05-01 11:29 41.15240 -8.40836 36162 ft 433 kts 174°
2026-05-01 11:30 41.06375 -8.38438 36173 ft 434 kts 174°
2026-05-01 11:30 41.00461 -8.36835 36161 ft 434 kts 174°
2026-05-01 11:31 40.94542 -8.35236 36169 ft 434 kts 174°
2026-05-01 11:31 40.88616 -8.33644 36151 ft 435 kts 174°
2026-05-01 11:32 40.82675 -8.32050 36140 ft 436 kts 174°
2026-05-01 11:32 40.76720 -8.30455 36148 ft 437 kts 174°
2026-05-01 11:33 40.70752 -8.28856 36156 ft 438 kts 174°
2026-05-01 11:33 40.64776 -8.27257 36162 ft 438 kts 174°
2026-05-01 11:34 40.58792 -8.25659 36144 ft 439 kts 175°
2026-05-01 11:34 40.52804 -8.24063 36153 ft 440 kts 175°
2026-05-01 11:35 40.46804 -8.22467 36158 ft 440 kts 175°
2026-05-01 11:35 40.40798 -8.20871 36166 ft 441 kts 175°
2026-05-01 11:36 40.34789 -8.19283 36166 ft 441 kts 175°
2026-05-01 11:36 40.28775 -8.17695 36170 ft 441 kts 175°
2026-05-01 11:37 40.22763 -8.16110 36171 ft 441 kts 175°
2026-05-01 11:37 40.16789 -8.14526 36162 ft 441 kts 175°
2026-05-01 11:38 40.10768 -8.12937 36158 ft 441 kts 176°
2026-05-01 11:38 40.04748 -8.11360 36163 ft 441 kts 176°
2026-05-01 11:39 39.98721 -8.09789 36166 ft 442 kts 175°
2026-05-01 11:39 39.92695 -8.08215 36152 ft 442 kts 176°
2026-05-01 11:40 39.86657 -8.06638 36157 ft 443 kts 176°
2026-05-01 11:40 39.80615 -8.05061 36161 ft 443 kts 176°
2026-05-01 11:41 39.74567 -8.03488 36144 ft 443 kts 176°
2026-05-01 11:41 39.68511 -8.01926 36149 ft 444 kts 176°
2026-05-01 11:42 39.62449 -8.00356 36152 ft 445 kts 176°
2026-05-01 11:42 39.56379 -7.98782 36157 ft 445 kts 176°
2026-05-01 11:43 39.50308 -7.97220 36145 ft 445 kts 177°
2026-05-01 11:43 39.44238 -7.95653 36160 ft 445 kts 177°
2026-05-01 11:44 39.35115 -7.93309 36161 ft 446 kts 177°
2026-05-01 11:44 39.29031 -7.91742 36152 ft 446 kts 177°
2026-05-01 11:45 39.22941 -7.90178 36148 ft 446 kts 177°
2026-05-01 11:45 39.16845 -7.88615 36158 ft 447 kts 177°
2026-05-01 11:46 39.10749 -7.87059 36157 ft 447 kts 177°
2026-05-01 11:46 39.04648 -7.85510 36137 ft 447 kts 178°
2026-05-01 11:47 38.98541 -7.83959 36137 ft 448 kts 178°
2026-05-01 11:47 38.92427 -7.82401 36144 ft 448 kts 178°
2026-05-01 11:48 38.86349 -7.80856 36149 ft 448 kts 178°
2026-05-01 11:48 38.80227 -7.79310 36145 ft 448 kts 178°
2026-05-01 11:49 38.74105 -7.77765 36151 ft 448 kts 178°
2026-05-01 11:49 38.67983 -7.76214 36155 ft 448 kts 178°
2026-05-01 11:50 38.61861 -7.74675 36129 ft 448 kts 178°
2026-05-01 11:50 38.55734 -7.73140 36140 ft 449 kts 178°
2026-05-01 11:51 38.49592 -7.71602 35790 ft 450 kts 178°
2026-05-01 11:51 38.46518 -7.70835 35542 ft 451 kts 178°
2026-05-01 11:51 38.43438 -7.70067 35303 ft 451 kts 178°
2026-05-01 11:52 38.40345 -7.69298 34494 ft 455 kts 178°
2026-05-01 11:52 38.37227 -7.68524 33557 ft 458 kts 177°
2026-05-01 11:52 38.34082 -7.67741 32506 ft 462 kts 177°
2026-05-01 11:52 38.30920 -7.66952 31469 ft 466 kts 176°
2026-05-01 11:53 38.27728 -7.66150 30426 ft 469 kts 176°
2026-05-01 11:53 38.24508 -7.65344 29252 ft 472 kts 176°
2026-05-01 11:53 38.21322 -7.64541 28745 ft 461 kts 176°
2026-05-01 11:53 38.18191 -7.63751 27994 ft 456 kts 175°
2026-05-01 11:54 38.15095 -7.62978 27294 ft 451 kts 175°
2026-05-01 11:54 38.12031 -7.62219 26604 ft 446 kts 175°
2026-05-01 11:54 38.08990 -7.61564 25925 ft 438 kts 180°
2026-05-01 11:54 38.05984 -7.61436 25256 ft 429 kts 186°
2026-05-01 11:55 38.03010 -7.61449 24595 ft 426 kts 185°
2026-05-01 11:55 38.00056 -7.61457 23940 ft 423 kts 185°
2026-05-01 11:55 37.97125 -7.61460 23229 ft 420 kts 185°
2026-05-01 11:55 37.94222 -7.61459 22595 ft 414 kts 185°
2026-05-01 11:56 37.91361 -7.61456 22038 ft 408 kts 185°
2026-05-01 11:56 37.88538 -7.61455 21487 ft 403 kts 184°
2026-05-01 11:56 37.85748 -7.61455 20954 ft 398 kts 184°
2026-05-01 11:56 37.82993 -7.61455 20454 ft 394 kts 184°
2026-05-01 11:57 37.80269 -7.61453 19949 ft 389 kts 184°
2026-05-01 11:57 37.78481 -7.61452 19625 ft 387 kts 184°
2026-05-01 11:57 37.74907 -7.61456 18977 ft 381 kts 184°
2026-05-01 11:57 37.72265 -7.61462 18476 ft 378 kts 183°
2026-05-01 11:58 37.69644 -7.61466 17921 ft 375 kts 183°
2026-05-01 11:58 37.67084 -7.61465 17425 ft 370 kts 183°
2026-05-01 11:58 37.61984 -7.61461 16395 ft 363 kts 182°
2026-05-01 11:59 37.59463 -7.61460 15876 ft 361 kts 182°
2026-05-01 11:59 37.56962 -7.61459 15341 ft 358 kts 182°
2026-05-01 11:59 37.54475 -7.61462 14808 ft 356 kts 182°
2026-05-01 12:00 37.49547 -7.61473 13713 ft 352 kts 181°
2026-05-01 12:00 37.47106 -7.61475 13151 ft 349 kts 181°
2026-05-01 12:00 37.42296 -7.61474 12059 ft 342 kts 181°
2026-05-01 12:01 37.39925 -7.61472 11501 ft 340 kts 181°
2026-05-01 12:01 37.37566 -7.61470 10943 ft 337 kts 181°
2026-05-01 12:01 37.35258 -7.61471 10745 ft 324 kts 181°
2026-05-01 12:01 37.33052 -7.61472 10623 ft 310 kts 181°
2026-05-01 12:02 37.30941 -7.61472 10501 ft 297 kts 181°
2026-05-01 12:02 37.28916 -7.61469 10381 ft 285 kts 181°
2026-05-01 12:02 37.26959 -7.61471 10158 ft 278 kts 182°
2026-05-01 12:02 37.25013 -7.61477 10032 ft 275 kts 181°
2026-05-01 12:03 37.23123 -7.61481 9837 ft 275 kts 181°
2026-05-01 12:03 37.21188 -7.61482 9499 ft 274 kts 181°
2026-05-01 12:03 37.19312 -7.61480 9155 ft 273 kts 181°
2026-05-01 12:03 37.17397 -7.61479 8542 ft 279 kts 181°
2026-05-01 12:04 37.15475 -7.61479 8230 ft 274 kts 181°
2026-05-01 12:04 37.13571 -7.61479 7844 ft 273 kts 181°
2026-05-01 12:04 37.11676 -7.61480 7431 ft 272 kts 181°
2026-05-01 12:04 37.09787 -7.61483 7025 ft 271 kts 181°
2026-05-01 12:05 37.07922 -7.61758 6488 ft 273 kts 195°
2026-05-01 12:05 37.04309 -7.63643 5247 ft 283 kts 204°
2026-05-01 12:05 37.02548 -7.64624 5060 ft 271 kts 204°
2026-05-01 12:06 37.00871 -7.65555 4942 ft 257 kts 204°
2026-05-01 12:06 36.99276 -7.66437 4821 ft 244 kts 205°
2026-05-01 12:06 36.97993 -7.67688 4715 ft 230 kts 237°
2026-05-01 12:06 36.97564 -7.69557 4375 ft 229 kts 271°
2026-05-01 12:07 36.97810 -7.71554 3917 ft 235 kts 281°
2026-05-01 12:07 36.98134 -7.73553 3572 ft 234 kts 281°
2026-05-01 12:07 36.98431 -7.75547 3233 ft 230 kts 280°
2026-05-01 12:07 36.98704 -7.77441 2939 ft 219 kts 280°
2026-05-01 12:08 36.98971 -7.79299 2653 ft 209 kts 279°
2026-05-01 12:08 36.99220 -7.81031 2416 ft 202 kts 279°
2026-05-01 12:08 36.99461 -7.82721 2128 ft 193 kts 278°
2026-05-01 12:08 36.99694 -7.84326 1864 ft 180 kts 278°
2026-05-01 12:09 36.99905 -7.85805 1626 ft 164 kts 278°
2026-05-01 12:09 37.00034 -7.86708 1492 ft 156 kts 277°
2026-05-01 12:09 37.00219 -7.87999 1284 ft 147 kts 277°
2026-05-01 12:09 37.00395 -7.89233 1095 ft 143 kts 276°
2026-05-01 12:10 37.00569 -7.90456 918 ft 143 kts 276°
2026-05-01 12:10 37.00911 -7.92856 554 ft 139 kts 276°
2026-05-01 12:10 37.01081 -7.94042 392 ft 138 kts 278°
2026-05-01 12:11 37.01420 -7.96367 24 ft 129 kts 275°
2026-05-01 12:11 37.01532 -7.97213 20 ft 57 kts 279°
2026-05-01 12:11 37.01556 -7.97382 19 ft 5 kts 281°
2026-05-01 12:12 37.01579 -7.97529 19 ft 29 kts 279°
2026-05-01 12:12 37.01619 -7.97802 20 ft 15 kts 282°
2026-05-01 12:12 37.01695 -7.97842 20 ft 13 kts 22°
2026-05-01 12:12 37.01744 -7.97758 22 ft 12 kts 72°
2026-05-01 12:13 37.01768 -7.97665 20 ft 11 kts 80°
2026-05-01 12:13 37.01767 -7.97575 20 ft 10 kts 95°
2026-05-01 12:13 37.01758 -7.97492 20 ft 9 kts 98°
2026-05-01 12:13 37.01749 -7.97416 20 ft 9 kts 98°
2026-05-01 12:14 37.01740 -7.97345 20 ft 8 kts 103°
2026-05-01 12:14 37.01727 -7.97282 22 ft 7 kts 103°
2026-05-01 12:14 37.01718 -7.97223 20 ft 7 kts 101°
2026-05-01 12:14 37.01709 -7.97166 20 ft 9 kts 101°
2026-05-01 12:15 37.01695 -7.97065 20 ft 15 kts 99°
2026-05-01 12:15 37.01682 -7.96935 21 ft 14 kts 73°
2026-05-01 12:15 37.01783 -7.96888 20 ft 16 kts 10°
2026-05-01 12:15 37.01842 -7.96854 20 ft 6 kts 22°
2026-05-01 12:16 37.01882 -7.96844 20 ft 2 kts
2026-05-01 12:16 37.01898 -7.96841 20 ft 3 kts
2026-05-01 12:17 37.01911 -7.96838 20 ft 2 kts
2026-05-01 12:17 37.01918 -7.96837 20 ft 0 kts